Regional Weather Roundup
Issued by NWS

Home | Current Version | Previous Version | Text Only | Print | Product List | Glossary On
Versions: 1 2 3 4 5 6 7 8 9 10 11 12 13 14 15 16 17 18 19 20 21 22 23 24 25 26 27 28 29 30 31 32 33 34 35 36 37 38 39 40 41 42 43 44 45 46 47 48 49 50
000
ASUS43 KOAX 251202
RWRNE

WEATHER ROUNDUP FOR NEBRASKA
NATIONAL WEATHER SERVICE OMAHA NE
600 AM CST SUN JAN 25 2015

NOTES: SATELLITE DATA IS BEING USED TO AUGMENT CLOUD COVER ABOVE
       12000 FEET.
       "FAIR" INDICATES FEW OR NO CLOUDS BELOW 12,000 FEET WITH NO
       SIGNIFICANT WEATHER AND/OR OBSTRUCTIONS TO VISIBILITY.

  * THESE STATIONS DO NOT REPORT WEATHER SUCH AS RAIN...SNOW OR FOG.

NEZ001>004-019>022-054>056-251300-
NEBRASKA PANHANDLE

CITY           SKY/WX    TMP DP  RH WIND       PRES   REMARKS
SCOTTSBLUFF    CLEAR     35  28  75 W17       30.10R WCI  25
6HR MIN TEMP:  35; 6HR MAX TEMP:  39;

ALLIANCE       CLEAR     33  25  72 NW18      30.05S WCI  22
6HR MIN TEMP:  32; 6HR MAX TEMP:  36;

CHADRON        CLEAR     33  26  75 W15       30.06F WCI  23
6HR MIN TEMP:  31; 6HR MAX TEMP:  36;

SIDNEY         PTCLDY    33  24  69 NW14      30.09S WCI  23
6HR MIN TEMP:  33; 6HR MAX TEMP:  37;

$$

NEZ057>060-069>072-079>082-251300-
SOUTHWEST NEBRASKA

CITY           SKY/WX    TMP DP  RH WIND       PRES   REMARKS
NORTH PLATTE   CLEAR     33  26  75 NW13      30.00R WCI  24
6HR MIN TEMP:  33; 6HR MAX TEMP:  39;

IMPERIAL       CLEAR     37  22  54 NW18      30.04R WCI  27
6HR MIN TEMP:  37; 6HR MAX TEMP:  40;

MCCOOK         CLEAR     38  26  62 NW23      30.00R WCI  27
6HR MIN TEMP:  37; 6HR MAX TEMP:  43;

$$

NEZ005>010-023>029-035>040-094-251300-
NORTH CENTRAL NEBRASKA

CITY           SKY/WX    TMP DP  RH WIND       PRES   REMARKS
VALENTINE      CLEAR     36  29  75 NW16G24   29.96S WCI  26
6HR MIN TEMP:  36; 6HR MAX TEMP:  42;

AINSWORTH      CLEAR     35  29  80 NW16G24   29.95R WCI  25
BROKEN BOW     PTCLDY    38  29  70 NW29G38   29.92R WCI  26
6HR MIN TEMP:  38; 6HR MAX TEMP:  45;

ORD            CLOUDY    38  29  70 NW25G33   29.89R WCI  27
6HR MIN TEMP:  38; 6HR MAX TEMP:  41; 6HR PCP: TRACE;

$$

NEZ041-046>049-061>064-073>077-083>087-251300-
SOUTH CENTRAL NEBRASKA

CITY           SKY/WX    TMP DP  RH WIND       PRES   REMARKS
GRAND ISLAND   CLOUDY    38  34  85 N23G35    29.88R WCI  27
6HR MIN TEMP:  38; 6HR MAX TEMP:  45; 6HR PCP: TRACE;

AURORA         CLOUDY    38  32  79 N26G33    29.85R WCI  26
HASTINGS       CLOUDY    41  31  67 NW28G39   29.87R
6HR MIN TEMP:  40; 6HR MAX TEMP:  46; 6HR PCP: TRACE;

KEARNEY *      CLOUDY    41  27  56 N26G37    29.91R
$$

NEZ011>018-030>034-042>045-251300-
NORTHEAST NEBRASKA

CITY           SKY/WX    TMP DP  RH WIND       PRES   REMARKS
NORFOLK        CLOUDY    34  31  88 N24G33    29.84R WCI  21
6HR MIN TEMP:  34; 6HR MAX TEMP:  38; 6HR PCP: TRACE;

ALBION         CLOUDY    36  32  86 N17G25    29.86R WCI  25
BLAIR          LGT RAIN  36  32  87 NW20G29   29.74R WCI  25
COLUMBUS *     CLOUDY    36  27  69 NW21G30   29.84R WCI  24
FREMONT        CLOUDY    36  32  86 NW21G32   29.79R WCI  25
TEKAMAH        LGT RAIN  36  32  85 NW22      29.78R WCI  25
6HR MIN TEMP:  35; 6HR MAX TEMP:  43; 6HR PCP:  0.01;

$$

NEZ050>053-065>068-078-088>093-251300-
SOUTHEAST NEBRASKA

CITY           SKY/WX    TMP DP  RH WIND       PRES   REMARKS
LINCOLN        CLOUDY    36  30  79 N23G32    29.79R WCI  24
6HR MIN TEMP:  36; 6HR MAX TEMP:  45; 6HR PCP: TRACE;

OMAHA EPPLEY   CLOUDY    36  32  85 N23G33    29.74R WCI  24
6HR MIN TEMP:  35; 6HR MAX TEMP:  45; 6HR PCP:  0.01;

FALLS CITY     LGT RAIN  37  31  78 NW26G36   29.70R WCI  25
6HR MIN TEMP:  37; 6HR MAX TEMP:  46; 6HR PCP: TRACE;

$$

NEZ044-045-051>053-067-251300-
OMAHA AREA

CITY           SKY/WX    TMP DP  RH WIND       PRES   REMARKS
OMAHA EPPLEY   CLOUDY    36  32  85 N23G33    29.74R WCI  24
6HR MIN TEMP:  35; 6HR MAX TEMP:  45; 6HR PCP:  0.01;

BLAIR          LGT RAIN  36  32  87 NW20G29   29.74R WCI  25
FREMONT        CLOUDY    36  32  86 NW21G32   29.79R WCI  25
OFFUTT AFB     CLOUDY    36  32  87 NW16G25   29.72R WCI  26
$$



USA.gov is the U.S. government's official web portal to all federal, state and local government web resources and services.